St. Paul Lake Elmo, MN

1:09 AM CST on November 18, 2019 (GMT -0600)
St. Paul Lake Elmo

Weather History for K21D - September, 2019

Change the Weather History Date:

Wednesday, September 4, 2019

  Actual Average (KSTP) Record (KSTP)
Temperature  
Mean Temperature 62 °F -  
Max Temperature 69 °F 77 °F 91 °F (2007)
Min Temperature 55 °F 56 °F 48 °F (2010)
Degree Days  
Heating Degree Days 3    
Growing Degree Days 12 (Base 50)    
Moisture  
Dew Point 51 °F    
Average Humidity 73    
Maximum Humidity 94    
Minimum Humidity 52    
Precipitation  
Precipitation 0.00 in - - ()
Sea Level Pressure  
Sea Level Pressure 30.15 in    
Wind  
Wind Speed 5 mph (WSW)    
Max Wind Speed 12 mph    
Max Gust Speed -    
Visibility 10 miles    
Events      
Averages and records for this station are not official NWS values.
T = Trace of Precipitation, MM = Missing Value Source: NWS Daily Summary

Daily Weather History Graph

Daily Weather History Graph

Search for Another Location

Airport or City:

Astronomy

Sep. 04, 2019 Rise Set
Actual Time 6:36 AM CDT 7:43 PM CDT
Civil Twilight 6:06 AM CDT 8:13 PM CDT
Nautical Twilight 5:30 AM CDT 8:49 PM CDT
Astronomical Twilight 4:52 AM CDT 9:27 PM CDT
Moon 12:54 PM CDT (9/4) 11:01 PM CDT (9/4)
Length of Visible Light 14h 06m
Length of Day
13h 06m
Waxing Crescent, 35% of the Moon is Illuminated
Sep 4
Waxing Crescent
Sep 5
First Quarter
Sep 13
Full
Sep 21
Last Quarter
Sep 28
New

Hourly Weather History & Observations

Time (CDT) Temp. Dew Point Humidity Pressure Visibility Wind Dir Wind Speed Gust Speed Precip Events Conditions
12:19 AM 60.8 °F 50.0 °F 68% 30.06 in 10.0 mi WSW 8.1 mph - N/A   Unknown
12:36 AM 60.8 °F 50.0 °F 68% 30.06 in 10.0 mi WSW 8.1 mph - N/A   Unknown
12:56 AM 60.8 °F 50.0 °F 68% 30.07 in 10.0 mi WSW 8.1 mph - N/A   Unknown
1:15 AM 60.8 °F 50.0 °F 68% 30.07 in 10.0 mi WSW 6.9 mph - N/A   Unknown
1:16 AM 60.8 °F 50.0 °F 68% 30.07 in 10.0 mi WSW 6.9 mph - N/A   Unknown
1:35 AM 59.0 °F 50.0 °F 72% 30.07 in 10.0 mi WSW 5.8 mph - N/A   Unknown
1:57 AM 59.0 °F 51.8 °F 77% 30.07 in 10.0 mi WSW 6.9 mph - N/A   Unknown
2:15 AM 59.0 °F 51.8 °F 77% 30.08 in 10.0 mi WSW 8.1 mph - N/A   Unknown
2:35 AM 59.0 °F 50.0 °F 72% 30.07 in 10.0 mi WSW 11.5 mph - N/A   Unknown
2:36 AM 59.0 °F 50.0 °F 72% 30.07 in 10.0 mi WSW 10.4 mph - N/A   Unknown
2:55 AM 59.0 °F 50.0 °F 72% 30.08 in 10.0 mi WSW 11.5 mph - N/A   Unknown
2:56 AM 59.0 °F 50.0 °F 72% 30.08 in 10.0 mi WSW 11.5 mph - N/A   Unknown
3:19 AM 57.2 °F 50.0 °F 77% 30.08 in 10.0 mi WSW 9.2 mph - N/A   Unknown
3:36 AM 55.4 °F 50.0 °F 82% 30.09 in 10.0 mi WSW 6.9 mph - N/A   Unknown
3:55 AM 55.4 °F 50.0 °F 82% 30.09 in 10.0 mi WSW 4.6 mph - N/A   Unknown
4:15 AM 55.4 °F 50.0 °F 82% 30.10 in 10.0 mi WSW 4.6 mph - N/A   Unknown
4:16 AM 55.4 °F 50.0 °F 82% 30.10 in 10.0 mi WSW 4.6 mph - N/A   Unknown
4:35 AM 55.4 °F 50.0 °F 82% 30.11 in 10.0 mi WSW 5.8 mph - N/A   Unknown
4:57 AM 55.4 °F 50.0 °F 82% 30.11 in 10.0 mi WSW 5.8 mph - N/A   Unknown
5:16 AM 55.4 °F 50.0 °F 82% 30.12 in 10.0 mi WSW 4.6 mph - N/A   Unknown
5:35 AM 55.4 °F 51.8 °F 88% 30.13 in 10.0 mi WSW 3.5 mph - N/A   Unknown
5:36 AM 55.4 °F 51.8 °F 88% 30.13 in 10.0 mi WSW 3.5 mph - N/A   Unknown
5:55 AM 55.4 °F 51.8 °F 88% 30.14 in 10.0 mi Calm Calm - N/A   Unknown
6:18 AM 55.4 °F 51.8 °F 88% 30.16 in 10.0 mi Calm Calm - N/A   Unknown
6:36 AM 55.4 °F 51.8 °F 88% 30.16 in 10.0 mi Calm Calm - N/A   Unknown
6:56 AM 55.4 °F 51.8 °F 88% 30.17 in 10.0 mi Calm Calm - N/A   Unknown
7:15 AM 55.4 °F 51.8 °F 88% 30.18 in 10.0 mi WSW 3.5 mph - N/A   Unknown
7:16 AM 55.4 °F 51.8 °F 88% 30.18 in 10.0 mi Calm Calm - N/A   Unknown
7:35 AM 55.4 °F 51.8 °F 88% 30.18 in 10.0 mi WSW 3.5 mph - N/A   Unknown
7:40 AM 55.4 °F 51.8 °F 88% 30.19 in 10.0 mi WSW 3.5 mph - N/A   Unknown
7:57 AM 55.4 °F 51.8 °F 88% 30.19 in 10.0 mi WSW 6.9 mph - N/A   Unknown
8:16 AM 57.2 °F 51.8 °F 82% 30.20 in 10.0 mi WSW 4.6 mph - N/A   Unknown
8:35 AM 57.2 °F 51.8 °F 82% 30.20 in 10.0 mi WSW 5.8 mph - N/A   Unknown
8:36 AM 57.2 °F 51.8 °F 82% 30.20 in 10.0 mi WSW 5.8 mph - N/A   Unknown
8:55 AM 59.0 °F 51.8 °F 77% 30.20 in 10.0 mi WSW 6.9 mph - N/A   Unknown
8:56 AM 57.2 °F 51.8 °F 82% 30.20 in 10.0 mi WSW 5.8 mph - N/A   Unknown
9:18 AM 59.0 °F 51.8 °F 77% 30.20 in 10.0 mi WSW 5.8 mph - N/A   Unknown
9:37 AM 59.0 °F 51.8 °F 77% 30.20 in 10.0 mi Calm Calm - N/A   Unknown
9:56 AM 59.0 °F 50.0 °F 72% 30.20 in 10.0 mi Calm Calm - N/A   Unknown
10:15 AM 59.0 °F 50.0 °F 72% 30.20 in 10.0 mi Calm Calm - N/A   Unknown
10:16 AM 59.0 °F 50.0 °F 72% 30.20 in 10.0 mi Calm Calm - N/A   Unknown
10:35 AM 59.0 °F 50.0 °F 72% 30.20 in 10.0 mi Calm Calm - N/A   Unknown
10:39 AM 60.8 °F 50.0 °F 68% 30.20 in 10.0 mi Calm Calm - N/A   Unknown
10:58 AM 60.8 °F 50.0 °F 68% 30.20 in 10.0 mi Calm Calm - N/A   Unknown
11:15 AM 60.8 °F 50.0 °F 68% 30.20 in 10.0 mi Calm Calm - N/A   Unknown
11:35 AM 62.6 °F 50.0 °F 63% 30.20 in 10.0 mi Calm Calm - N/A   Unknown
11:55 AM 62.6 °F 50.0 °F 63% 30.21 in 10.0 mi WSW 8.1 mph - N/A   Unknown
11:56 AM 62.6 °F 50.0 °F 63% 30.21 in 10.0 mi WSW 5.8 mph - N/A   Unknown
12:19 PM 62.6 °F 50.0 °F 63% 30.20 in 10.0 mi WSW 3.5 mph - N/A   Unknown
12:36 PM 64.4 °F 50.0 °F 59% 30.20 in 10.0 mi Calm Calm - N/A   Unknown
12:56 PM 64.4 °F 48.2 °F 56% 30.19 in 10.0 mi WSW 4.6 mph - N/A   Unknown
1:15 PM 64.4 °F 50.0 °F 59% 30.19 in 10.0 mi WSW 3.5 mph - N/A   Unknown
1:35 PM 66.2 °F 50.0 °F 56% 30.19 in 10.0 mi Calm Calm - N/A   Unknown
1:39 PM 64.4 °F 50.0 °F 59% 30.19 in 10.0 mi Calm Calm - N/A   Unknown
1:58 PM 64.4 °F 50.0 °F 59% 30.18 in 10.0 mi Calm Calm - N/A   Unknown
2:15 PM 64.4 °F 50.0 °F 59% 30.18 in 10.0 mi WSW 3.5 mph - N/A   Unknown
2:35 PM 68.0 °F 51.8 °F 56% 30.18 in 10.0 mi Calm Calm - N/A   Unknown
2:36 PM 68.0 °F 51.8 °F 56% 30.18 in 10.0 mi WSW 3.5 mph - N/A   Unknown
2:55 PM 68.0 °F 51.8 °F 56% 30.17 in 10.0 mi WSW 4.6 mph - N/A   Unknown
2:56 PM 68.0 °F 50.0 °F 52% 30.17 in 10.0 mi WSW 5.8 mph - N/A   Unknown
3:18 PM 68.0 °F 50.0 °F 52% 30.17 in 10.0 mi WSW 3.5 mph - N/A   Unknown
3:36 PM 68.0 °F 51.8 °F 56% 30.16 in 10.0 mi Calm Calm - N/A   Unknown
3:55 PM 68.0 °F 51.8 °F 56% 30.16 in 10.0 mi Calm Calm - N/A   Unknown
3:56 PM 68.0 °F 51.8 °F 56% 30.16 in 10.0 mi Calm Calm - N/A   Unknown
4:15 PM 68.0 °F 51.8 °F 56% 30.15 in 10.0 mi WSW 3.5 mph - N/A   Unknown
4:16 PM 68.0 °F 51.8 °F 56% 30.15 in 10.0 mi Calm Calm - N/A   Unknown
4:35 PM 68.0 °F 50.0 °F 52% 30.14 in 10.0 mi Calm Calm - N/A   Unknown
4:57 PM 68.0 °F 51.8 °F 56% 30.14 in 10.0 mi Calm Calm - N/A   Unknown
5:15 PM 68.0 °F 51.8 °F 56% 30.13 in 10.0 mi Calm Calm - N/A   Unknown
5:35 PM 69.8 °F 51.8 °F 53% 30.13 in 10.0 mi WSW 4.6 mph - N/A   Unknown
5:36 PM 69.8 °F 51.8 °F 53% 30.13 in 10.0 mi WSW 3.5 mph - N/A   Unknown
5:55 PM 69.8 °F 51.8 °F 53% 30.14 in 10.0 mi Calm Calm - N/A   Unknown
5:56 PM 68.0 °F 53.6 °F 60% 30.14 in 10.0 mi Calm Calm - N/A   Unknown
6:18 PM 68.0 °F 53.6 °F 60% 30.13 in 10.0 mi WSW 4.6 mph - N/A   Unknown
6:36 PM 66.2 °F 53.6 °F 64% 30.13 in 10.0 mi WSW 4.6 mph - N/A   Unknown
6:56 PM 64.4 °F 55.4 °F 73% 30.13 in 10.0 mi WSW 4.6 mph - N/A   Unknown
7:15 PM 64.4 °F 53.6 °F 68% 30.12 in 10.0 mi WSW 4.6 mph - N/A   Unknown
7:16 PM 64.4 °F 53.6 °F 68% 30.12 in 10.0 mi WSW 3.5 mph - N/A   Unknown
7:35 PM 62.6 °F 53.6 °F 72% 30.12 in 10.0 mi WSW 3.5 mph - N/A   Unknown
7:57 PM 60.8 °F 53.6 °F 77% 30.12 in 10.0 mi WSW 3.5 mph - N/A   Unknown
8:15 PM 59.0 °F 53.6 °F 82% 30.12 in 10.0 mi Calm Calm - N/A   Unknown
8:35 PM 59.0 °F 53.6 °F 82% 30.13 in 10.0 mi Calm Calm - N/A   Unknown
8:55 PM 59.0 °F 53.6 °F 82% 30.14 in 10.0 mi Calm Calm - N/A   Unknown
8:56 PM 59.0 °F 53.6 °F 82% 30.14 in 10.0 mi Calm Calm - N/A   Unknown
9:18 PM 55.4 °F 53.6 °F 94% 30.14 in 10.0 mi Calm Calm - N/A   Unknown
9:36 PM 57.2 °F 53.6 °F 88% 30.13 in 10.0 mi Calm Calm - N/A   Unknown
9:55 PM 55.4 °F 53.6 °F 94% 30.13 in 10.0 mi Calm Calm - N/A   Unknown
10:15 PM 57.2 °F 53.6 °F 88% 30.13 in 10.0 mi Calm Calm - N/A   Unknown
10:16 PM 57.2 °F 53.6 °F 88% 30.13 in 10.0 mi Calm Calm - N/A   Unknown
10:35 PM 55.4 °F 53.6 °F 94% 30.13 in 10.0 mi WSW 3.5 mph - N/A   Unknown
10:57 PM 55.4 °F 53.6 °F 94% 30.13 in 10.0 mi WSW 3.5 mph - N/A   Unknown
11:16 PM 55.4 °F 51.8 °F 88% 30.12 in 10.0 mi WSW 3.5 mph - N/A   Unknown
11:35 PM 55.4 °F 53.6 °F 94% 30.12 in 10.0 mi Calm Calm - N/A   Unknown
11:36 PM 55.4 °F 53.6 °F 94% 30.12 in 10.0 mi Calm Calm - N/A   Unknown
11:55 PM 55.4 °F 53.6 °F 94% 30.12 in 10.0 mi Calm Calm - N/A   Unknown